Location: Unspecified
(0.0000°N, 0.0000°E)
Time: 11:31:05
(UTC+00:00)

deb Explorer IX - Pass Details

Date: 21 November 2019
Orbit: 545 x 1105 km, 38.8° (Epoch: 08 December)

Event Time Altitude Azimuth Distance (km) Brightness Sun altitude
Rises 17:48:13 0° 191° (S) 3,631 ? -0.6°
Reaches altitude 10° 17:53:27 10° 156° (SSE) 2,817 ? -1.8°
Maximum altitude 17:55:08 11° 142° (SE) 2,783 ? -2.2°
Drops below altitude 10° 17:56:50 10° 128° (SE) 2,881 ? -2.6°
Enters shadow 18:02:10 - 95° (E) 3,841 ? -3.8°
Sets 18:02:25 0° 94° (E) 3,901 - -3.9°
